Showing default

GALAXY 34, 54027

Orbit data source: Space-Track

GALAXY 34, 54027 is a payload satellite owned by Intelsat SA (US) (US) in GEO that was launched on Sat, 08 Oct 2022 UTC via an FALCON 9 launch vehicle from the Air Force Eastern Test Range (AFETR). Payload-class satellites include a variety of spacecraft equipped with specific instruments for various scientific and technological missions. These include communications satellites like Starlink; space stations such as the ISS; scientific satellites like the Hubble; Earth observation satellites from companies like Planet Labs, Umbra, and HawkEye 360; GPS; miniature CubeSats for education and research; and military/defense satellites.

Loading next visibility...
Identifier
54027, 2022-128B
Orbit
GEO
Country
Flag of USUS
Related business
Manufacturer
NGIS SSG
Mission
Operational Commercial Communications
Bus & Motor
GEOSTAR-2.4E, BT-4?
Mass
3,650 kg wet, ~2,500 kg dry
Launch date (UTC)
2022-10-08 (4 years ago)
Launch vehicle
FALCON 9
Launch site
Air Force Eastern Test Range (AFETR)
Object type
Payload
Rocket body
Debris
Shape & HBR
Box + 2 Pan, 11.5 m
Radar Cross Section
29.373 m², Large (>1 m²)

Expand to show TLE details & history
Last TLE update: 2 days ago

TLE from 2 days ago
0 GALAXY 34
1 54027U 22128B   26171.03517034  .00000053  00000-0  00000-0 0  9991
2 54027   0.0124  53.5288 0001758  53.8534  44.5334  1.00275411 13948
Epoch: 2026-06-20T00:50Z
TLE epoch observation values (Epoch: 2026-06-20T00:50:38.717Z)
Latitude
0.02102°
Longitude
-128.9745°
Altitude
35,779.779 km
Speed
3.075 km/s
True Right ascension
10h 07m 46s
True Declination
0° 01' 16"
Sunlit
Object was in daylight at epoch
Visualization orbit readout
Latitude
Unknown
Longitude
Unknown
Altitude
Unknown
Speed
Unknown
Apparent Right ascension
Unknown
Apparent Declination
Unknown
Sunlit
N/A
Visualization observer readout
Local Sidereal Time
21:40:41
Azimuth
Unknown
Elevation
Unknown
Doppler factor
Unknown
Orbital elements
Apogee altitude
35,794.061 km
Perigee altitude
35,779.236 km
Semi-major axis
42,164.786 km
Eccentricity
0.00018
Inclination
0.0124°
RAAN
53.5288°
Arg. of periapsis
53.8534°
True anomaly
44.54753°
Mean anomaly
44.5334°
Eccentric anomaly
44.54047°
Mean motion
0.25068 °/min
Orbital period
1,436.1 mins
BSTAR
0
Loading maneuver chart data...
Computing Atmospheric mass density...
Loading historical data...
Loading historical data...
Loading historical data...
Loading historical data...
Loading historical data...
Loading historical data...
Loading historical data...
Other satellites on launch #128 in the year 2022 (2022-10-08 UTC)

Documentation

Showing up to 5 results
|